Terminal Aerodrome Forecast
Issued by NWS

Home | Current Version | Previous Version | Graphics & Text | Print | Product List | Glossary On
Versions: 1 2 3 4 5 6 7 8 9 10 11 12 13 14 15 16 17 18 19
000
FTUS43 KABR 210100 AAA
TAFPIR
TAF AMD
KPIR 210149Z 2102/2124 11012KT P6SM SCT150
     FM211000 33008KT P6SM SKC
     FM211800 35009KT P6SM BKN200=

USA.gov is the U.S. government's official web portal to all federal, state and local government web resources and services.